Погода в Серове

Поиск расширенной информации на нашем сайте:

Полезная информация:

Новости сайта



14.11.2019
Обновлён Долгосрочный прогноз погоды по России и другим странам хСССР на ноябрь-декабрь 2019 года.
Опубликованы прогностические карты: Предварительный прогноз на декабрь 2019 года, Предварительный прогноз на январь 2020 года, Предварительная схема синоптических процессов на декабрь 2019 г..

11.11.2019
Обновлены Долгосрочный прогноз погоды по России и другим странам хСССР на ноябрь-декабрь 2019 года и Предварительный прогноз на зиму 2019/2020 годов

04.11.2019
Опубликован Долгосрочный прогноз погоды по России и другим странам хСССР на ноябрь 2019 года
Сравнение прогнозируемой аномалии приземной температуры воздуха на ноябрь 2019 года по разным моделям
Предварительный прогноз на зиму 2019/2020 года




Погода в Серове - сегодня

Время (UTC), дата Ветер
(°,м/с) 
Видим.   Явления Облачность Т
(°С)
Тd
(°С)
f(%) Тe
(°С)
Pmin
(гПа)
dP
(гПа)
Po
(мм)
O2
(г/м3)
Тmin Tmax R s Состояние
почвы
00 18.11.19 350 (С) 10 км    10/10 600 м 
[Sc]
-4.4 -7.5 79 -4  1025.4  0.7  757  311           
03 18.11.19 010 (С) 6-11{11}  2000 м  слаб. снег  10/10 300 м 
[Frnb|Ns]
-8.4 -12.1 75 -13  1028.4  2.7  759  317  -8.4    0.0  28  равномерный
сухой снег
100% 
06 18.11.19 010 (С) 4{13}  20000 м  в посл. час снег  9/8 600 м верхняя 
[Sc|Cs]
-13.4 -18.3 67 -18  1033.3  4.5  762  325  -13.4         
09 18.11.19 010 (С) 20000 м  {снег}  6/5 600 м верхняя 
[Sc|Cs]
-15.6 -20.1 68 -19  1035.2  1.7  764  328           
12 18.11.19 360 (С) 10 км    4/3 600 м верхняя 
[Sc|Cs]
-19.2 -23.1 71 -25  1037.8  2.3  765  333           
15 18.11.19 360 (С) 10 км    3/3 600 м 
[Sc]
-23.2 -27 71 -28  1040.2  2.1  767  340    -8.5  0.3     
18 18.11.19 340 (С) 10 км    ясно 
-25.8 -29.6 70 -29  1042.1  1.7  768  344           
21 18.11.19 340 (С) 10 км    ясно 
-26.9 -30.9 69 -30  1042.7  0.5  769  346           
00 19.11.19 300 (СЗ) 10 км    ясно 
-26.7 -31 67 -30  1043.4  0.7  769  345           
03 19.11.19 340 (С) 10 км    ясно 
-24.5 -29.2 65 -29  1043.7  0.5  770  343  -27.6      28  равномерный
сухой снег
100% 
06 19.11.19 340 (С) 10 км    8/3 600 м верхняя 
[Sc|Cs]
-22.8 -26.8 70 -27  1044.4  0.8  770  340           
09 19.11.19 330 (СЗ) 10 км    4/0 верхняя 
[Ci fib]
-20.1 -24.1 70 -24  1045  0.7  771  337           
12 19.11.19 330 (СЗ) 10 км    ясно 
-20.1 -23.8 72 -23  1045.3  0.3  771  337           
15 19.11.19 350 (С) 10 км  позёмок  ясно 
-19.6 -23.3 72 -25  1046.1  0.8  772  337    -19.6       
18 19.11.19 340 (С) 10 км  позёмок  ясно 
-20 -23.7 72 -24  1047.1  0.9  772  338           
21 19.11.19 330 (СЗ) 10 км  позёмок  ясно 
-19.3 -24 66 -24  1047.8  0.7  773  337           
00 20.11.19 340 (С) 10 км  позёмок  ясно 
-17.4 -21.4 71 -22  1048  0.4  773  334           
03 20.11.19 300 (СЗ) 10 км    ясно 
-19.4 -22.6 76 -24  1048.2  773  337  -20      27  равномерный
сухой снег
100% 
06 20.11.19 260 (З) 20000 м    ясно 
-20.5 -23.9 74 -23  1048.8  0.5  773  339  -20.6         
09 20.11.19 240 (ЮЗ) 20000 м    ясно 
-13.3 -18.6 64 -13  1047.6  -0.6  773  329           
12 20.11.19 240 (ЮЗ) 10 км    ясно 
-16.7 -19.5 79 -17  1046.3  -1.6  772  333           
15 20.11.19 280 (З) 10 км    ясно 
-17.8 -20.5 79 -20  1044.5  -1.8  770  334    -13.2       
18 20.11.19 260 (З) 10 км    5/5 600 м 
[Sc]
-17.4 -21.6 70 -21  1042.5  -2  769  333           
21 20.11.19 260 (З) 10 км    9/0 средняя 
[Sc|Ac trans]
-18.3 -22.2 71 -19  1040.6  -1.9  768  333           
00 21.11.19 260 (З) 10 км    3/3 600 м 
[Sc]
-11 -19.1 51 -14  1037  -3  765  323           
Время (UTC), дата Ветер
(°,м/с) 
Видим.   Явления Облачность Т
(°С)
Тd
(°С)
f(%) Тe
(°С)
Pmin
(гПа)
dP
(гПа)
Po
(мм)
O2
(г/м3)
Тmin Tmax R s Состояние
почвы

Для получения пояснительной информации подведите курсор к названию столбца.

ПОГОДА в Серове - архив

Всё, что Вы хотите узнать о погоде в Серове - удобно и подробно!

Выберите нужную дату (начиная с 1 января 2019* года) и нажмите кнопку "Найти".
Будут отображены архивные сводки погоды по пункту Серов, начиная с указанной даты.


Отображать данные в формате CSV (для использования в таблицах Excel)


Внимание! Наш архив погоды предназначен исключительно для личного некоммерческого использования в познавательных целях. Если Вам необходимы официальные справки о состоянии погоды (для производственных, юридических, коммерческих и т.п. целей), обращайтесь в органы Росгидромета.

*Примечание: данная дата относится к архиву по метеостанциям СССР (Россия, СНГ, Балтия).
Архив по метеостанциям Зарубежной Европы и Азии (кроме Китая) хранится 10 дней, по другим регионам земного шара (Китай, Африка, Америка, Австралия, Океания) - 1 день.

Серов - район местоположения метеостанции


Название, широта, долгота, высота метеостанции:
Серов 59.6°ш. 60.5°д. 130 м над ур. моря [Российская Федерация]

Дополнительная информация

В oтличие oт бoльшинства пoгoдных сайтoв мы публикуем пoдрoбную метеoинфoрмацию в детальнoм прoфессиoнальнoм фoрмате.

Характеристики температуры и влажнoсти вoздуха измеряются на высoте 2 м в тени вдали oт зданий и деревьев.
Скoрoсть ветра измеряется на высoте 10 м (на урoвне рoста челoвека скoрoсть ветра ниже в 1.5-2 раза). Если метеoстанция нахoдится в гoрoде или в лесу, тo скoрoсть ветра занижена на 2-4 м/с пo сравнению с oткрытым местoм. Скoрoсть ветра над акватoриями крупных рек и oзёр, а также на вершинах хoлмoв на 2-5 м/с выше, чем в oбычных услoвиях.
Атмoсфернoе давление в разных тoчках местнoсти мoжет значительнo oтличаться oт давления на метеoстанции, в зависимoсти oт услoвий рельефа (при пoдъёме на 10 м давление пoнижается примернo на 1 мм рт.ст.).